Probability
0 0 0 0 0 0 0 0 0 0 0 0 0 0 0 0 0 0 0 0 0 0 0 0 0 0 0 0 0 0 0 0 0 0 0 0 0 0 0 0 0 0 0 0 0 0 0 0 0
0 0 0 0 0 0 0 0 0 0 0 0 0 0 0 0 0 0 0 0 0 0 0 0 0 0 0 0 0 0 0 0 0 0 0 0 0 0 0 0 0 0 0 0 0 0 0 0 0
0 0 0 0 0 0 0 0 0 0 0 0 0 0 0 0 0 0 0 0 0 0 0 0 0 0 0 0 0 0 0 0 0 0 0 0 0 0 0 0 0 0 0 0 0 0 0 0 0
0 0 0 0 0 0 0 0 0 0 0 0 0 0 0 0 0 0 0 0 0 0 0 0 0 0 0 0 0 0 0 0 0 0 0 0 0 0 0 0 0 0 0 0 0 0 0 0 0
0 0 0 0 0 0 0 0 0 0 0 0 0 0 0 0 0 0 0 0 0 0 0 0 0 0 0 0 0 0 0 0 0 0 0 0 0 0 0 0 0 0 0 0 0 0 0 0 0
0 0 0 0 0 0 0 0 0 0 0 0 0 0 0 0 0 0 0 0 0 0 0 0 0 0 0 0 0 0 0 0 0 0 0 0 0 0 0 0 0 0 0 0 0 0 0 0 0
0 0 0 0 0 0 0 0 0 0 0 0 0 0 0 0 0 0 0 0 0 0 0 0 0 0 0 0 0 0 0 0 0 0 0 0 0 0 0 0 0 0 0 0 0 0 0 0 0
0 0 0 0 0 0 0 0 0 0 0 0 0 0 0 0 0 0 0 0 0 0 0 0 0 0 0 0 0 0 0 0 0 0 0 0 0 0 0 0 0 0 0 0 0 0 0 0 0
0 0 0 0 0 0 0 0 0 0 1 1 0 0 0 0 0 0 0 0 0 0 0 0 0 0 0 0 0 0 0 0 0 0 0 0 0 0 0 0 0 0 0 0 0 0 0 0 0
0 0 0 0 0 0 0 0 0 1 2 2 1 0 0 0 0 0 0 0 0 0 0 0 0 0 0 0 0 0 0 0 0 0 0 0 0 0 0 0 0 0 0 0 0 0 0 0 0
0 0 0 0 0 0 0 0 0 1 2 2 1 1 1 0 0 0 0 0 0 0 0 0 0 0 0 0 0 0 0 0 0 0 0 0 0 0 0 0 0 0 0 0 0 0 0 0 0
0 0 0 0 0 0 0 0 0 0 1 2 1 2 2 1 0 0 0 0 0 0 0 0 0 0 0 0 0 0 0 0 0 0 0 0 0 0 0 0 0 0 0 0 0 0 0 0 0
0 0 0 0 0 0 0 0 0 0 1 2 1 2 3 1 0 0 0 0 0 0 0 0 0 0 0 0 0 0 0 0 0 0 0 0 0 0 0 0 0 0 0 0 0 0 0 0 0
0 0 0 0 0 0 0 0 0 1 2 2 1 1 1 1 1 0 0 0 0 0 0 0 0 0 0 0 0 0 0 0 0 0 0 0 0 0 0 0 0 0 0 0 0 0 0 0 0
0 0 0 0 0 0 0 0 0 1 2 3 2 1 0 0 0 0 0 0 0 0 0 0 0 0 0 0 0 0 0 0 0 0 0 0 0 0 0 0 0 0 0 0 0 0 0 0 0
0 0 0 0 0 0 0 0 0 0 1 2 2 1 0 0 0 0 0 0 0 0 0 0 0 0 0 0 0 0 0 0 0 0 0 0 0 0 0 0 0 0 0 0 0 0 0 0 0
0 0 0 0 0 0 0 0 0 0 0 1 1 0 0 0 0 0 0 0 0 0 0 0 0 0 0 0 0 0 0 0 0 0 0 0 0 0 0 0 0 0 0 0 0 0 0 0 0
0 0 0 0 0 0 0 0 0 0 0 0 0 0 0 0 0 0 0 0 0 0 0 0 0 0 0 0 0 0 0 0 0 0 0 0 0 0 0 0 0 0 0 0 0 0 0 0 0
0 0 0 0 0 0 0 0 0 0 0 0 0 0 0 0 0 0 0 0 0 0 0 0 1 1 1 1 1 1 0 0 0 0 0 0 0 0 0 0 0 0 0 0 0 0 0 0 0
0 0 0 0 0 0 0 0 0 0 0 0 0 0 0 0 0 0 0 0 0 1 1 1 1 2 2 2 2 1 0 0 0 0 0 0 0 0 0 0 0 0 0 0 0 0 0 0 0
0 0 0 0 0 0 0 0 0 0 0 0 0 0 0 0 0 0 0 0 1 2 2 1 1 2 2 2 1 1 0 0 0 0 0 0 0 0 0 0 0 0 0 0 0 0 0 0 0
0 0 0 0 0 0 0 0 0 0 0 0 0 0 0 0 0 0 0 0 1 2 3 3 2 2 2 1 0 0 0 0 0 0 0 0 0 0 0 0 0 0 0 0 0 0 0 0 0
0 0 0 0 0 0 0 0 0 0 0 0 0 0 0 0 0 0 0 0 1 2 3 3 3 3 2 1 0 0 0 0 0 0 0 0 0 0 0 0 0 0 0 0 0 0 0 0 0
0 0 0 0 0 0 0 0 0 0 0 0 0 0 0 0 0 0 0 0 1 2 3 3 3 3 3 1 0 0 0 0 0 0 0 0 0 0 0 0 0 0 0 0 0 0 0 0 0
0 0 0 0 0 0 0 0 0 0 0 0 0 0 0 0 0 0 0 0 0 1 2 2 3 3 2 1 0 0 0 0 0 0 0 1 1 0 0 0 0 0 0 0 0 0 0 0 0
0 0 0 0 0 0 0 0 0 0 0 0 0 0 0 0 0 0 0 0 0 0 1 1 1 2 1 1 0 0 0 0 0 0 0 1 1 0 0 0 0 0 0 0 0 0 0 0 0
0 0 0 0 0 0 0 0 0 0 0 0 0 0 0 0 0 0 0 0 0 0 0 0 0 0 0 0 0 0 0 0 0 1 1 1 1 0 0 0 0 0 0 0 0 0 0 0 0
0 0 0 0 0 0 0 0 0 0 0 0 0 0 0 0 0 0 0 0 0 0 0 0 0 0 0 0 0 0 0 0 0 1 2 1 0 0 0 0 0 0 1 1 0 0 0 0 0
0 0 0 0 0 0 0 0 0 0 0 0 0 0 0 0 0 0 0 0 0 0 0 0 0 0 0 0 0 0 0 0 0 1 1 1 0 0 0 0 0 1 2 2 1 0 0 0 0
0 0 0 0 0 0 0 0 0 0 0 0 0 0 0 0 0 0 0 0 0 0 0 0 0 0 0 0 0 0 0 0 0 0 0 0 0 0 0 0 0 1 2 3 2 1 0 0 0
Wind_Speed
12 7 2 4 6 5 1 4 2 3 2 2 4 9 9 6 3 3 1 4 7 10 8 9 10 13 13 13 13 12 12 12 12 12 12 12 12 12 12 12 12 12 13 13 13 13 13 12 12
6 3 4 5 5 1 3 4 2 2 1 2 5 7 8 5 4 4 3 3 8 10 8 9 9 11 13 13 13 12 12 12 12 12 12 12 12 12 11 11 11 11 12 12 12 12 11 10 10
5 1 4 4 3 4 3 2 2 3 2 3 5 6 6 3 2 1 2 7 9 8 6 8 10 11 12 12 12 12 12 11 11 12 11 11 11 10 10 10 10 11 11 11 11 10 10 9 8
3 4 5 4 2 3 3 3 3 2 3 5 5 6 4 3 0 2 7 8 9 7 5 7 9 10 10 11 11 12 12 11 11 11 11 11 11 10 10 10 9 10 10 10 10 9 9 7 6
4 4 4 1 3 3 2 3 1 1 1 3 5 6 3 5 4 8 8 8 8 6 5 6 8 8 8 9 10 11 11 11 10 11 11 10 10 10 10 9 9 9 9 9 9 8 7 6 5
4 5 4 2 3 3 3 3 2 3 2 3 5 6 3 4 6 6 7 7 7 7 5 4 6 6 6 7 7 8 9 9 10 10 10 10 10 10 9 9 9 9 9 9 8 8 6 5 4
4 4 3 2 2 3 5 3 2 2 4 3 3 6 2 4 3 5 7 7 6 6 5 4 3 4 5 5 5 6 6 8 9 9 9 9 9 9 8 8 8 9 9 8 8 7 5 4 3
3 4 2 1 1 3 5 3 2 3 2 3 5 6 2 1 2 6 7 7 6 5 4 3 3 2 2 3 4 4 4 6 7 7 8 8 8 8 8 7 7 8 8 8 7 7 6 5 3
3 4 2 2 2 2 4 4 5 3 5 5 5 3 2 4 7 9 8 7 5 5 4 3 2 2 1 1 3 3 4 5 5 5 7 7 4 4 5 6 7 8 8 8 8 7 6 5 4
4 3 3 1 1 1 3 4 3 5 6 5 7 8 7 8 9 9 7 6 5 4 3 3 2 2 1 1 1 1 2 2 3 3 4 3 3 4 5 7 8 8 8 8 8 8 6 4 2
3 3 2 1 0 1 2 4 4 3 4 3 3 5 7 8 7 7 5 4 3 3 3 3 3 2 1 1 0 1 1 1 2 3 4 3 3 2 3 2 4 5 6 4 5 4 3 3 2
3 1 1 1 2 3 2 2 4 4 1 2 4 8 8 7 6 5 4 3 3 3 3 3 3 3 2 1 0 0 1 1 2 3 3 3 3 3 3 3 3 3 3 4 3 3 3 4 4
1 0 1 1 3 3 4 2 2 2 2 5 7 9 8 6 5 4 4 5 4 3 2 2 2 2 2 2 1 0 1 1 2 2 2 3 3 4 4 4 4 4 3 4 4 4 4 4 4
2 1 1 2 1 2 3 2 2 3 3 7 8 6 5 4 4 4 4 4 3 3 2 2 2 2 2 2 2 1 1 1 1 1 2 3 2 3 3 4 4 5 4 4 4 5 5 4 4
1 2 3 3 1 0 2 3 1 2 3 6 5 4 4 4 4 3 2 2 2 2 2 3 2 3 2 2 2 2 1 1 1 1 2 2 2 3 3 3 4 4 4 5 4 4 3 4 4
2 2 1 3 1 1 4 3 3 1 4 3 2 2 3 3 2 2 2 2 2 2 2 2 2 3 3 2 2 2 2 2 1 1 1 2 2 2 2 3 3 3 3 4 4 4 3 4 4
2 1 2 2 2 1 3 2 3 1 3 2 1 2 2 2 2 2 1 1 1 1 1 2 2 2 2 2 2 2 1 2 2 2 2 2 2 2 2 2 2 3 3 3 3 3 3 4 4
2 2 1 2 1 2 2 2 2 2 2 1 1 1 2 2 1 1 1 0 1 1 1 1 2 2 2 1 2 2 2 2 2 2 2 3 2 2 2 1 2 2 2 2 2 3 3 3 3
2 2 1 1 1 1 2 3 4 2 1 0 1 1 1 1 2 1 1 1 2 2 2 1 1 2 2 1 1 1 2 2 2 2 3 3 3 2 1 2 2 2 2 3 3 2 2 2 1
1 1 1 2 2 0 1 3 3 2 2 2 3 3 2 1 2 2 2 2 2 1 1 1 1 2 1 1 1 1 1 2 2 3 4 4 4 3 2 2 2 2 2 2 2 2 2 2 2
2 2 2 2 3 1 0 3 3 3 1 1 2 2 2 1 1 1 1 1 1 1 0 1 1 1 1 2 2 3 2 2 2 3 3 4 4 4 3 3 3 3 2 3 3 3 3 4 3
3 3 3 2 1 2 1 3 5 3 2 2 2 2 2 2 2 2 1 1 1 2 1 1 1 1 1 1 2 2 1 2 3 3 3 4 3 4 3 3 3 3 3 3 3 3 3 3 4
2 2 2 2 2 1 1 2 6 2 4 5 4 3 3 3 2 1 2 2 1 1 1 1 1 2 2 2 1 1 2 3 2 2 3 3 3 4 4 4 3 3 3 4 4 3 3 3 4
1 2 2 3 2 3 4 4 6 4 6 4 3 2 2 1 1 1 2 2 2 2 2 2 2 2 2 2 2 2 3 3 3 3 4 3 3 3 4 4 4 4 4 4 5 4 4 5 4
3 4 3 3 2 6 3 4 7 5 3 3 3 2 0 1 2 3 3 4 4 4 3 3 3 3 4 3 3 3 3 3 3 4 4 4 3 3 4 4 4 4 5 5 4 4 5 5 5
1 4 4 4 4 4 2 5 6 3 1 2 2 1 1 2 2 2 2 3 3 4 4 4 4 4 4 4 4 4 3 3 3 4 4 4 4 4 5 5 5 5 5 5 4 4 5 5 5
3 1 2 3 1 2 5 5 6 1 1 1 1 2 1 1 1 1 2 2 2 3 4 4 4 4 5 4 4 4 4 4 4 4 4 3 4 5 5 5 5 5 5 5 5 4 5 5 5
2 3 3 3 2 3 5 4 4 3 3 1 1 1 2 2 2 2 2 2 3 3 3 4 4 4 4 4 4 4 4 4 4 4 4 4 5 5 5 5 5 5 5 5 5 5 4 5 5
1 2 2 2 3 3 3 6 4 4 3 2 2 2 2 3 3 2 2 3 3 3 3 4 4 5 5 5 4 4 4 4 4 4 5 5 5 5 5 5 5 6 6 5 5 5 5 6 6
2 3 4 3 3 3 3 7 3 1 1 1 2 3 3 3 2 2 3 3 3 4 4 4 4 5 5 5 5 5 5 5 5 5 5 5 5 5 5 5 6 6 6 5 6 6 6 6 7
Wind_Direction
329 326 17 53 54 53 294 275 275 332 9 13 75 89 94 80 93 121 67 111 123 145 151 149 150 151 147 144 142 143 142 139 135 130 127 123 121 121 118 115 113 112 110 108 106 106 104 102 101
319 335 45 58 85 92 275 283 325 298 223 114 69 77 77 62 54 91 79 126 135 144 147 149 145 148 149 148 147 146 144 144 141 137 133 129 125 123 122 119 117 116 114 112 110 108 109 107 103
323 48 73 75 121 175 226 287 285 302 16 65 64 58 85 81 75 101 147 137 130 133 141 146 147 146 150 153 153 151 148 148 148 144 142 140 134 129 128 128 124 123 121 118 116 114 112 111 105
29 45 57 84 192 225 215 279 309 343 12 40 87 69 64 35 29 128 127 124 124 124 130 142 147 150 151 153 155 156 155 155 152 150 148 148 144 138 134 134 134 132 127 125 123 121 120 117 108
57 75 74 100 232 255 269 295 302 32 31 25 82 93 57 359 54 105 116 116 118 118 123 141 144 149 154 156 158 158 161 161 159 156 153 152 149 146 143 142 143 141 138 135 132 130 129 127 118
58 74 107 203 244 281 307 334 12 36 26 23 72 98 79 15 64 102 109 108 113 117 114 127 135 143 151 155 157 164 163 165 162 160 160 158 155 155 153 153 153 152 149 145 142 141 140 141 137
104 109 158 191 238 304 310 335 40 64 47 8 75 96 80 11 50 97 97 94 96 107 110 104 110 125 137 144 154 157 168 167 165 164 164 163 162 162 162 162 162 161 159 156 152 151 154 157 159
123 111 136 184 194 281 316 353 17 66 65 29 62 104 133 306 66 84 83 83 80 79 94 99 92 92 108 135 145 151 163 170 170 170 169 169 167 167 167 167 172 170 168 166 165 165 173 179 191
87 92 171 195 181 272 333 8 355 35 72 56 49 84 121 105 82 74 67 60 68 70 69 73 67 79 96 133 160 162 167 172 172 173 175 173 172 172 173 178 180 179 178 179 182 185 191 196 214
82 141 201 208 177 277 357 19 360 38 41 37 33 37 67 84 86 85 80 74 65 55 47 50 53 57 84 176 153 173 179 179 179 178 180 182 179 183 185 188 190 189 189 191 197 202 204 203 226
108 163 171 349 15 7 14 12 18 79 46 50 75 82 87 81 85 91 91 89 78 69 46 28 21 21 49 19 149 212 196 189 192 190 191 189 184 185 190 188 197 198 195 198 208 210 209 207 214
104 69 106 51 32 42 27 1 32 56 105 77 111 120 104 94 94 98 96 78 68 61 36 23 19 14 7 13 348 249 230 209 208 210 201 191 191 194 194 193 196 195 194 194 199 203 209 214 220
105 72 17 24 49 63 62 50 52 0 4 71 79 87 96 102 94 76 67 60 56 54 28 20 22 15 6 16 348 341 299 261 241 216 213 206 202 205 204 201 196 197 196 197 200 206 212 219 224
128 105 338 339 356 50 66 29 49 328 58 80 83 88 89 92 89 66 52 49 46 45 32 19 21 8 7 10 351 333 302 297 278 247 228 212 213 213 209 209 204 205 202 201 203 208 212 218 220
94 46 354 341 325 305 79 7 343 304 79 82 86 94 81 66 65 69 75 68 65 54 43 31 27 17 9 353 343 342 328 327 296 293 280 253 242 228 212 211 215 216 206 203 202 211 212 220 222
48 69 331 315 18 356 110 249 306 2 92 84 80 92 90 66 61 56 47 39 41 49 52 40 28 21 12 0 344 344 344 352 335 329 313 290 280 287 243 218 221 221 209 203 205 208 209 218 221
42 149 215 304 5 60 131 229 297 35 97 96 77 78 83 63 30 9 22 40 45 50 55 42 29 27 1 359 347 347 356 0 348 350 334 316 312 311 294 269 252 223 213 212 213 216 211 218 225
186 178 189 230 345 82 135 226 310 1 104 140 139 91 75 67 312 312 344 42 64 48 50 52 27 17 5 3 3 2 8 354 352 346 338 339 326 332 311 301 312 268 234 230 229 230 225 220 227
138 133 180 251 284 97 191 241 275 302 16 116 166 177 195 233 264 347 9 26 49 43 33 30 26 6 20 4 348 334 323 320 336 337 338 339 345 332 306 302 305 305 259 244 229 225 235 234 221
123 162 269 318 338 80 219 260 268 236 196 198 203 214 220 258 350 12 21 29 43 59 40 21 352 356 359 334 302 315 303 323 345 342 343 347 344 342 328 300 292 278 290 289 263 243 234 236 197
246 208 222 259 341 359 40 302 269 268 238 225 237 226 216 180 212 274 340 354 13 4 309 344 314 328 337 354 16 17 19 3 358 343 328 333 335 331 329 328 316 300 277 267 259 245 233 238 235
247 235 222 214 204 270 175 276 265 244 251 233 239 241 233 242 242 249 261 268 275 274 286 295 319 351 355 15 25 29 2 304 292 310 315 326 329 328 324 325 324 316 299 289 277 254 254 243 241
265 295 215 203 191 268 278 241 275 236 238 240 235 234 240 240 235 256 271 259 269 285 317 320 344 353 357 8 349 320 304 289 306 326 323 322 318 317 321 319 310 306 297 299 294 276 264 250 252
285 31 46 49 79 255 228 208 269 228 222 229 228 234 254 287 324 332 340 351 348 348 354 356 3 348 343 343 339 327 307 310 324 325 314 311 309 308 310 311 304 297 295 295 288 278 269 257 253
54 81 45 8 349 250 239 217 250 244 219 197 201 207 149 32 36 17 8 5 359 358 356 357 4 348 345 343 332 312 301 298 291 292 293 300 301 301 300 302 293 291 289 289 289 282 274 265 261
132 131 153 192 227 275 275 233 255 255 202 147 139 127 75 28 21 16 4 4 1 359 355 355 358 349 348 346 334 329 327 313 299 298 299 295 292 292 300 298 292 290 292 292 283 276 278 273 265
122 142 164 131 54 281 262 272 294 313 34 68 76 56 21 323 332 333 341 354 354 355 350 347 350 346 346 343 337 333 329 323 313 312 311 306 304 302 301 298 295 295 294 290 288 275 274 274 263
127 138 103 123 156 261 280 261 247 236 243 278 328 324 309 315 312 316 330 341 342 341 337 345 346 335 329 331 330 333 325 320 315 316 311 309 309 309 309 306 300 297 294 290 286 286 285 281 275
112 121 127 137 164 180 262 267 231 221 217 218 259 289 297 286 287 305 327 330 334 340 341 340 339 335 333 330 326 326 320 318 319 316 312 312 311 311 310 305 302 299 297 296 291 288 294 285 282
168 175 157 169 234 209 238 269 298 232 214 194 296 307 304 291 302 318 320 331 343 344 339 336 334 331 324 319 320 320 320 324 325 321 318 318 315 313 312 310 302 297 297 295 290 287 286 283 284